Flag for Germany Weather past 2 weeks in Wedel, Schleswig-Holstein, Germany

Now
45 °F

Light rain. Passing clouds.


Feels Like: 43 °F
Forecast: 41 / 51 °F
Wind: 3 mph from North

Location: Hamburg-Fuhlsbuettel

Current Time: Apr 27, 2015 at 12:44:04 AM

Latest Report: Apr 27, 2015 at 12:20 AM


Visibility: N/A

Pressure: 29.71 "Hg

Humidity: 93%

Dew point: 43 °F

Location of WedelLocation

Historic Weather in Wedel — Graph

°F

Wedel temperature yesterday

Maximum temperature yesterday: 57 °F (at 1:50 PM)
Minimum temperature yesterday: 45 °F (at 7:20 PM)
Average temperature yesterday: 51 °F

Past Weeks' High & Low Weather Summary

 TemperatureHumidityPressure
High70 °F (Apr 15, 3:20 PM)100% (Apr 14, 3:50 AM)30.39 "Hg (Apr 14, 3:50 AM)
Low30 °F (Apr 18, 5:50 AM)32% (Apr 20, 3:20 PM)29.68 "Hg (Apr 25, 10:20 AM)
Average49 °F72%30.10 "Hg
* Reported Apr 11 11:20 PM — Apr 26 11:20 PM, Wedel, Weather by CustomWeather, © 2015

Note: Actual official high and low records may vary slightly from our data, if they occured in-between our weather recording intervals... More about our weather records

Advertising

Wedel weather history for previous 24 hours

 ConditionsComfort  
Time TempWeatherWind HumidityBarometerVisibility
11:20 PM
Sun, Apr 26
45 °FPartly cloudy.3 mph93%29.71 "HgN/A
10:50 PM45 °FPartly cloudy.3 mph93%29.71 "HgN/A
10:20 PM45 °FPassing clouds.5 mph93%29.74 "HgN/A
9:50 PM45 °FPartly cloudy.3 mph93%29.71 "HgN/A
9:20 PM45 °FBroken clouds.5 mph93%29.71 "HgN/A
8:50 PM45 °FPartly sunny.6 mph93%29.71 "HgN/A
8:20 PM45 °FPartly sunny.7 mph93%29.71 "HgN/A
7:50 PM45 °FPartly sunny.6 mph93%29.71 "HgN/A
7:20 PM45 °FPartly sunny.7 mph93%29.71 "HgN/A
6:50 PM46 °FPartly sunny.8 mph87%29.71 "HgN/A
6:20 PM46 °FPartly sunny.8 mph93%29.71 "Hg5 mi
5:50 PM46 °FPartly sunny.9 mph93%29.71 "Hg5 mi
5:20 PM48 °FLight rain. Partly sunny.10 mph94%29.71 "Hg5 mi
4:50 PM50 °FPartly sunny.10 mph94%29.68 "Hg5 mi
4:20 PM50 °FPartly sunny.10 mph94%29.68 "Hg5 mi
3:50 PM50 °FSprinkles. Scattered clouds.10 mph100%29.68 "Hg4 mi
3:20 PM52 °FRain showers. Partly sunny.18 mph94%29.68 "Hg2 mi
2:50 PM57 °FScattered showers. Scattered clouds.7 mph82%29.68 "HgN/A
2:20 PM57 °FPartly sunny.7 mph82%29.68 "HgN/A
1:50 PM57 °FPartly sunny.8 mph82%29.68 "HgN/A
1:20 PM55 °FLight rain. Broken clouds.6 mph94%29.68 "Hg5 mi
12:50 PM54 °FRain showers. Scattered clouds.8 mph94%29.68 "Hg2 mi
12:20 PM55 °FLight rain. Partly sunny.9 mph82%29.68 "HgN/A
11:50 AM55 °FLight rain. Partly sunny.8 mph82%29.68 "HgN/A
11:20 AM55 °FLight rain. Partly sunny.9 mph88%29.68 "Hg6 mi
10:50 AM55 °FLight rain. Broken clouds.8 mph88%29.68 "Hg6 mi
10:20 AM54 °FLight rain. Partly sunny.7 mph88%29.68 "Hg6 mi
9:50 AM54 °FLight rain. Partly sunny.7 mph88%29.71 "Hg6 mi
9:20 AM54 °FLight rain. Broken clouds.8 mph88%29.71 "Hg6 mi
8:50 AM54 °FBroken clouds.5 mph88%29.71 "Hg5 mi
8:20 AM52 °FPartly sunny.8 mph94%29.71 "Hg4 mi
7:50 AM52 °FPartly sunny.7 mph94%29.71 "Hg4 mi
7:20 AM52 °FFog.5 mph94%29.71 "Hg2 mi
6:50 AM52 °FFog.8 mph94%29.71 "Hg2 mi
6:20 AM52 °FFog.9 mph100%29.71 "Hg2 mi
5:50 AM52 °FFog.8 mph100%29.68 "Hg2 mi
5:20 AM50 °FFog.7 mph100%29.68 "Hg2 mi
4:50 AM50 °FFog.6 mph100%29.71 "Hg2 mi
4:20 AM48 °FFog.6 mph94%29.71 "Hg3 mi
3:50 AM50 °FPassing clouds.6 mph100%29.71 "Hg4 mi
3:20 AM52 °FPartly cloudy.6 mph94%29.71 "Hg4 mi
2:50 AM52 °FPartly cloudy.6 mph94%29.71 "Hg5 mi
2:20 AM54 °FPartly cloudy.8 mph94%29.71 "Hg6 mi
1:50 AM52 °FPassing clouds.9 mph100%29.71 "Hg6 mi
1:20 AM54 °FPartly cloudy.8 mph94%29.71 "HgN/A
12:50 AM54 °FPassing clouds.7 mph94%29.71 "HgN/A
12:20 AM54 °FMostly cloudy.9 mph94%29.68 "Hg6 mi
Weather by CustomWeather, © 2015

See weather overviewHow to use our weather pages